tititudorancea.com
Station Historical Data
Daily Summary for April 17, 2018 Units:  Metric    English   Both
« Previous Day
Next Day »
Daily Weekly Monthly Yearly Custom
  High: Low: Average:
Temperature: -17.8 °C 7.5 °C 11.3 °C
Dew Point: -17.8 °C 4.5 °C 5.7 °C
Humidity: Humidity % 51 % 69 %
Wind Speed: 0 km/h 0 km/h 8.2 km/h
Wind Gust: 0 km/h - -
Wind:- - South
Pressure: 0 hPa 1020.5 hPa -
Precipitation: 0 mm    
Historical Graphs
 
 
Ararat weather Find more about Weather in Ararat, AU


 



 


Tabular Data for April 17, 2018
Time Temperature Dew Point Pressure Wind Wind Speed Wind Gust Humidity Rainfall Rate (Hourly)
-17.8 °C -17.8 °C 0 hPa Calm     Humidity % 0 mm
00:00 11 °C 5.3 °C 1020.5 hPa SSW 10.3 km/h 14.8 km/h 68 % 0 mm
00:05 10.9 °C 5.3 °C 1020.5 hPa North 5.1 km/h 16.7 km/h 68 % 0 mm
00:10 10.9 °C 5.5 °C 1020.5 hPa SSE 12.9 km/h 20.4 km/h 69 % 0 mm
00:15 10.9 °C 5.4 °C 1020.5 hPa SSW 13.4 km/h 14.8 km/h 69 % 0 mm
00:20 10.8 °C 5.2 °C 1020.5 hPa SW 16.3 km/h 24.1 km/h 68 % 0 mm
00:25 10.8 °C 5.1 °C 1020.5 hPa SSW 12.4 km/h 12.4 km/h 68 % 0 mm
00:30 10.7 °C 5.2 °C 1020.5 hPa SSW 11.1 km/h 13 km/h 69 % 0 mm
00:35 10.6 °C 5.1 °C 1020.5 hPa SSW 10 km/h 11.1 km/h 69 % 0 mm
00:40 10.5 °C 5.1 °C 1020.5 hPa SSW 7.4 km/h 13 km/h 69 % 0 mm
00:45 10.3 °C 4.9 °C 1020.5 hPa SSW 14 km/h 20.4 km/h 69 % 0 mm
00:50 10.3 °C 4.8 °C 1020.5 hPa South 7.6 km/h 22.2 km/h 69 % 0 mm
00:55 10.3 °C 4.8 °C 1020.9 hPa SSW 9.8 km/h 14.8 km/h 69 % 0 mm
01:00 10.2 °C 4.9 °C 1020.9 hPa SSW 5.1 km/h 13 km/h 70 % 0 mm
01:05 10.1 °C 4.9 °C 1020.9 hPa SSW 9.3 km/h 13 km/h 70 % 0 mm
01:10 10 °C 4.8 °C 1020.9 hPa SSW 8.2 km/h 13 km/h 70 % 0 mm
01:15 9.9 °C 4.7 °C 1020.9 hPa SSW 8.2 km/h 13 km/h 70 % 0 mm
01:20 9.9 °C 4.9 °C 1021.2 hPa SSW 5.8 km/h 14.8 km/h 71 % 0 mm
01:25 9.8 °C 4.8 °C 1021.2 hPa North 11.6 km/h 13 km/h 71 % 0 mm
01:30 9.7 °C 4.7 °C 1021.2 hPa SSW 9.2 km/h 18.5 km/h 71 % 0 mm
01:35 9.7 °C 4.7 °C 1021.2 hPa SSW 12.4 km/h 18.5 km/h 71 % 0 mm
01:40 9.6 °C 4.6 °C 1021.2 hPa SSW 3.1 km/h 6.4 km/h 71 % 0 mm
01:45 9.6 °C 4.6 °C 1021.2 hPa SSW 7.7 km/h 11.3 km/h 71 % 0 mm
01:50 9.5 °C 4.5 °C 1021.2 hPa SSW 9 km/h 11.3 km/h 71 % 0 mm
01:55 9.5 °C 4.7 °C 1021.2 hPa SSW 11.3 km/h 16.7 km/h 72 % 0 mm
02:00 9.5 °C 4.7 °C 1021.2 hPa SSW 4.8 km/h 11.1 km/h 72 % 0 mm
02:05 9.5 °C 4.7 °C 1021.2 hPa SSW 8 km/h 13 km/h 72 % 0 mm
02:10 9.6 °C 4.8 °C 1021.2 hPa SSW 7.4 km/h 16.7 km/h 72 % 0 mm
02:15 9.6 °C 5 °C 1021.2 hPa South 8.9 km/h 13 km/h 73 % 0 mm
02:20 9.7 °C 5.1 °C 1021.2 hPa South 4.7 km/h 9.3 km/h 73 % 0 mm
02:25 9.8 °C 5.2 °C 1021.2 hPa South 2.3 km/h 14.8 km/h 73 % 0 mm
02:30 9.8 °C 5.2 °C 1021.2 hPa South 8 km/h 14.8 km/h 73 % 0 mm
02:35 9.8 °C 5.2 °C 1021.2 hPa South 4 km/h 8 km/h 73 % 0 mm
02:40 9.8 °C 5.2 °C 1021.2 hPa South 8.2 km/h 11.1 km/h 73 % 0 mm
02:45 9.8 °C 5.2 °C 1021.2 hPa South 7.1 km/h 12.9 km/h 73 % 0 mm
02:50 9.9 °C 5.3 °C 1021.2 hPa SSW 6.8 km/h 13 km/h 73 % 0 mm
02:55 9.9 °C 5.3 °C 1021.2 hPa North 8 km/h 13 km/h 73 % 0 mm
03:00 9.9 °C 5.3 °C 1021.2 hPa North 5 km/h 9.7 km/h 73 % 0 mm
03:05 9.9 °C 5.3 °C 1021.2 hPa South 6 km/h 13 km/h 73 % 0 mm
03:10 9.9 °C 5.3 °C 1021.6 hPa South 4.5 km/h 11.3 km/h 73 % 0 mm
03:15 9.9 °C 5.3 °C 1021.2 hPa South 7.4 km/h 11.3 km/h 73 % 0 mm
03:20 9.9 °C 5.3 °C 1021.2 hPa South 10.5 km/h 18.5 km/h 73 % 0 mm
03:25 9.9 °C 5.3 °C 1021.6 hPa South 9.7 km/h 9.7 km/h 73 % 0 mm
03:30 10 °C 5.6 °C 1021.6 hPa South 11.1 km/h 16.1 km/h 74 % 0 mm
03:35 10 °C 5.6 °C 1021.6 hPa North 8.2 km/h 20.4 km/h 74 % 0 mm
03:40 10 °C 5.6 °C 1021.6 hPa South 11.1 km/h 14.5 km/h 74 % 0 mm
03:45 9.9 °C 5.5 °C 1021.6 hPa South 3.2 km/h 20.4 km/h 74 % 0 mm
03:50 9.9 °C 5.4 °C 1021.6 hPa South 8.4 km/h 11.1 km/h 74 % 0 mm
03:55 9.8 °C 5.6 °C 1021.6 hPa South 10.1 km/h 10.1 km/h 75 % 0 mm
04:00 9.8 °C 5.6 °C 1021.9 hPa South 5 km/h 14.8 km/h 75 % 0 mm
04:06 9.7 °C 5.6 °C 1021.9 hPa North 8.4 km/h 11.3 km/h 76 % 0 mm
04:11 9.6 °C 5.6 °C 1021.9 hPa South 5.3 km/h 9.7 km/h 76 % 0 mm
04:16 9.5 °C 5.5 °C 1021.9 hPa South 8.7 km/h 14.8 km/h 76 % 0 mm
04:21 9.4 °C 5.6 °C 1021.9 hPa South 7.1 km/h 11.1 km/h 77 % 0 mm
04:26 9.3 °C 5.5 °C 1021.9 hPa North 4.7 km/h 9.3 km/h 77 % 0 mm
04:31 9.2 °C 5.6 °C 1022.2 hPa North 4 km/h 7.4 km/h 78 % 0 mm
04:36 9.2 °C 5.6 °C 1022.2 hPa South 4 km/h 7.4 km/h 78 % 0 mm
04:41 9.1 °C 5.4 °C 1022.2 hPa South 2.4 km/h 5.6 km/h 78 % 0 mm
04:46 8.9 °C 5.3 °C 1022.2 hPa South 6.8 km/h 6.8 km/h 78 % 0 mm
04:51 8.9 °C 5.4 °C 1022.2 hPa South 2.1 km/h 5.6 km/h 79 % 0 mm
04:56 8.8 °C 5.4 °C 1022.2 hPa North 1.9 km/h 4.8 km/h 79 % 0 mm
05:01 8.8 °C 5.5 °C 1022.2 hPa South 1.6 km/h 3.7 km/h 80 % 0 mm
05:06 8.8 °C 5.5 °C 1022.6 hPa North 3.2 km/h 5.6 km/h 80 % 0 mm
05:11 8.8 °C 5.5 °C 1022.6 hPa South 2.4 km/h 6.4 km/h 80 % 0 mm
05:16 8.8 °C 5.6 °C 1022.6 hPa South 4.2 km/h 7.4 km/h 80 % 0 mm
05:21 8.9 °C 5.6 °C 1022.6 hPa South 4.3 km/h 9.3 km/h 80 % 0 mm
05:26 8.9 °C 5.7 °C 1022.6 hPa North 1.8 km/h 5.6 km/h 80 % 0 mm
05:29 8.9 °C 5.5 °C 1022.6 hPa South 3.7 km/h 7.4 km/h 79 % 0 mm
05:34 8.9 °C 5.5 °C 1022.6 hPa South 1.9 km/h 3.7 km/h 79 % 0 mm
05:39 8.9 °C 5.4 °C 1022.6 hPa South 1.9 km/h 5.6 km/h 79 % 0 mm
05:44 8.8 °C 5.4 °C 1022.6 hPa South 4.2 km/h 5.6 km/h 79 % 0 mm
05:49 8.7 °C 5.4 °C 1022.6 hPa South 2.9 km/h 5.6 km/h 80 % 0 mm
05:54 8.6 °C 5.3 °C 1022.6 hPa South 3.5 km/h 7.4 km/h 80 % 0 mm
05:59 8.5 °C 5.2 °C 1022.9 hPa South 3.2 km/h 5.6 km/h 80 % 0 mm
06:04 8.4 °C 5.2 °C 1022.9 hPa South 1.9 km/h 5.6 km/h 80 % 0 mm
06:09 8.4 °C 5.4 °C 1022.9 hPa South 2.4 km/h 5.6 km/h 81 % 0 mm
06:14 8.4 °C 5.3 °C 1022.9 hPa South 1.1 km/h 3.7 km/h 81 % 0 mm
06:19 8.3 °C 5.2 °C 1022.9 hPa Calm   1.9 km/h 81 % 0 mm
06:24 8.2 °C 5.2 °C 1022.9 hPa South 0.3 km/h 1.9 km/h 81 % 0 mm
06:29 8.2 °C 5.3 °C 1022.9 hPa Calm     82 % 0 mm
06:34 8.2 °C 5.3 °C 1022.9 hPa SSW 0.3 km/h 1.9 km/h 82 % 0 mm
06:39 8.1 °C 5.4 °C 1023.2 hPa South 0.8 km/h 3.7 km/h 83 % 0 mm
06:44 8.2 °C 5.4 °C 1022.9 hPa North 0.3 km/h 1.9 km/h 83 % 0 mm
06:49 8.2 °C 5.5 °C 1022.9 hPa SSW 1.1 km/h 3.7 km/h 83 % 0 mm
06:54 8.2 °C 5.5 °C 1022.9 hPa South 1.4 km/h 6.4 km/h 83 % 0 mm
06:59 8.4 °C 5.7 °C 1023.2 hPa SSW 7.6 km/h 11.1 km/h 83 % 0 mm
07:04 8.6 °C 5.9 °C 1023.2 hPa SSW 8.2 km/h 13 km/h 83 % 0 mm
07:09 9 °C 5.9 °C 1023.2 hPa SSW 8.5 km/h 13 km/h 81 % 0 mm
07:14 9.3 °C 5.8 °C 1023.2 hPa SSW 8.4 km/h 14.8 km/h 79 % 0 mm
07:19 9.4 °C 5.8 °C 1023.2 hPa South 0.6 km/h 3.7 km/h 78 % 0 mm
07:24 9.6 °C 5.9 °C 1023.2 hPa North 4.2 km/h 7.4 km/h 78 % 0 mm
07:29 9.7 °C 6 °C 1023.6 hPa South 4 km/h 7.4 km/h 78 % 0 mm
07:34 9.7 °C 5.9 °C 1023.6 hPa South 3.5 km/h 5.6 km/h 77 % 0 mm
07:39 9.8 °C 6 °C 1023.6 hPa South 4.2 km/h 7.4 km/h 77 % 0 mm
07:44 9.9 °C 5.9 °C 1023.6 hPa South 11.4 km/h 14.8 km/h 76 % 0 mm
07:49 10 °C 5.9 °C 1023.6 hPa South 8.7 km/h 14.8 km/h 76 % 0 mm
07:54 10.1 °C 5.9 °C 1023.6 hPa South 9.7 km/h 13 km/h 75 % 0 mm
07:59 10.2 °C 6 °C 1023.6 hPa South 9.3 km/h 9.3 km/h 75 % 0 mm
08:04 10.3 °C 6.1 °C 1023.9 hPa South 8.4 km/h 13 km/h 75 % 0 mm
08:09 10.3 °C 5.9 °C 1023.9 hPa North 5.1 km/h 7.4 km/h 74 % 0 mm
08:14 10.4 °C 6 °C 1023.9 hPa South 5.8 km/h 8 km/h 74 % 0 mm
08:19 10.6 °C 5.9 °C 1023.9 hPa South 4.3 km/h 9.3 km/h 73 % 0 mm
08:24 10.8 °C 6 °C 1023.9 hPa South 8.9 km/h 16.7 km/h 72 % 0 mm
08:29 11.1 °C 6.3 °C 1023.9 hPa South 9.5 km/h 20.9 km/h 72 % 0 mm
08:32 11.3 °C 6.1 °C 1023.9 hPa South 7.6 km/h 18.5 km/h 70 % 0 mm
08:37 11.7 °C 6.2 °C 1024.3 hPa SSE 12.2 km/h 16.1 km/h 69 % 0 mm
08:42 11.8 °C 6.1 °C 1023.9 hPa SE 13.8 km/h 17.7 km/h 68 % 0 mm
08:47 12 °C 6.3 °C 1024.3 hPa SSE 6 km/h 18.5 km/h 68 % 0 mm
08:52 12 °C 6.3 °C 1024.3 hPa SSE 10.6 km/h 14.5 km/h 68 % 0 mm
08:57 11.9 °C 6.2 °C 1024.3 hPa SSE 5.5 km/h 13 km/h 68 % 0 mm
09:02 11.9 °C 6.4 °C 1024.3 hPa South 7.9 km/h 14.8 km/h 69 % 0 mm
09:07 11.9 °C 6.4 °C 1024.3 hPa SE 17.1 km/h 24.1 km/h 69 % 0 mm
09:12 11.8 °C 6.3 °C 1024.3 hPa SSW 11.3 km/h 18.5 km/h 69 % 0 mm
09:17 11.7 °C 6.2 °C 1024.3 hPa South 10.9 km/h 18.5 km/h 69 % 0 mm
09:22 11.6 °C 5.9 °C 1024.3 hPa South 15.1 km/h 29.6 km/h 68 % 0 mm
09:27 11.6 °C 6.1 °C 1024.3 hPa South 12.4 km/h 17.7 km/h 69 % 0 mm
09:32 11.8 °C 6.3 °C 1024.3 hPa SSE 12.6 km/h 22.2 km/h 69 % 0 mm
09:37 12.1 °C 6.6 °C 1024.6 hPa SSE 12.9 km/h 18.5 km/h 69 % 0 mm
09:42 12.4 °C 6.7 °C 1024.6 hPa SE 15 km/h 20.4 km/h 68 % 0 mm
09:47 12.6 °C 6.4 °C 1024.6 hPa SSE 16.4 km/h 22.2 km/h 66 % 0 mm
09:52 12.4 °C 6.3 °C 1024.6 hPa SSE 9.2 km/h 14.8 km/h 66 % 0 mm
09:57 12.6 °C 6.4 °C 1024.3 hPa South 9 km/h 20.9 km/h 66 % 0 mm
10:02 12.5 °C 6.3 °C 1024.3 hPa SE 10.9 km/h 16.7 km/h 66 % 0 mm
10:07 12.6 °C 6.4 °C 1024.3 hPa SSE 14.2 km/h 18.5 km/h 66 % 0 mm
10:12 12.9 °C 6.4 °C 1024.3 hPa SSW 13.4 km/h 24.1 km/h 65 % 0 mm
10:17 12.8 °C 6.1 °C 1024.6 hPa SSE 14.5 km/h 20.4 km/h 64 % 0 mm
10:22 13.1 °C 6.4 °C 1024.6 hPa SE 16.1 km/h 20.4 km/h 64 % 0 mm
10:27 13.3 °C 5.9 °C 1024.6 hPa SSE 18.5 km/h 24.1 km/h 61 % 0 mm
10:32 13.3 °C 6.2 °C 1024.3 hPa SE 18.8 km/h 25.9 km/h 62 % 0 mm
10:37 13.3 °C 6.2 °C 1024.3 hPa SSE 12.1 km/h 20.4 km/h 62 % 0 mm
10:42 13.4 °C 6 °C 1024.3 hPa SE 12.2 km/h 18.5 km/h 61 % 0 mm
10:47 13.4 °C 6 °C 1024.3 hPa SSE 18.2 km/h 27.8 km/h 61 % 0 mm
10:52 13.6 °C 6.4 °C 1024.3 hPa SE 13.8 km/h 24.1 km/h 62 % 0 mm
10:57 13.5 °C 6.1 °C 1024.3 hPa South 14.3 km/h 18.5 km/h 61 % 0 mm
11:02 13.5 °C 6.3 °C 1024.3 hPa SE 10 km/h 14.8 km/h 62 % 0 mm
11:07 13.8 °C 6.2 °C 1024.3 hPa South 18 km/h 25.9 km/h 60 % 0 mm
11:12 14 °C 6.3 °C 1024.3 hPa North 10.6 km/h 20.4 km/h 60 % 0 mm
11:17 14 °C 6.6 °C 1024.3 hPa SSE 12.1 km/h 16.7 km/h 61 % 0 mm
11:22 14 °C 6.3 °C 1024.3 hPa SSE 8.9 km/h 14.8 km/h 60 % 0 mm
11:27 13.9 °C 6.2 °C 1024.3 hPa SE 13.5 km/h 18.5 km/h 60 % 0 mm
11:32 14.2 °C 6.3 °C 1024.3 hPa SSE 14.3 km/h 20.4 km/h 59 % 0 mm
11:37 14 °C 6.1 °C 1024.3 hPa SSE 13.2 km/h 18.5 km/h 59 % 0 mm
11:42 14.1 °C 6.4 °C 1024.3 hPa SSE 12.1 km/h 16.7 km/h 60 % 0 mm
11:47 14.2 °C 6 °C 1024.3 hPa South 8.2 km/h 11.1 km/h 58 % 0 mm
11:52 14.4 °C 6.5 °C 1024.3 hPa SSE 10.1 km/h 16.1 km/h 59 % 0 mm
11:57 14.5 °C 6.3 °C 1023.9 hPa SSE 15 km/h 24.1 km/h 58 % 0 mm
12:02 14.4 °C 6.5 °C 1023.9 hPa SE 16.1 km/h 24.1 km/h 59 % 0 mm
12:07 14.6 °C 6.6 °C 1023.9 hPa SSE 6 km/h 19.3 km/h 59 % 0 mm
12:12 14.5 °C 6.3 °C 1023.9 hPa SSW 14.6 km/h 22.2 km/h 58 % 0 mm
12:17 14.5 °C 6.3 °C 1023.9 hPa South 17.7 km/h 24.1 km/h 58 % 0 mm
12:22 14.4 °C 6.5 °C 1023.9 hPa SSE 10.3 km/h 18.5 km/h 59 % 0 mm
12:27 14.6 °C 6.4 °C 1023.9 hPa SSE 7.1 km/h 14.5 km/h 58 % 0 mm
12:32 14.9 °C 6.5 °C 1023.9 hPa North 13 km/h 18.5 km/h 57 % 0 mm
12:37 15.1 °C 6.3 °C 1023.9 hPa SSW 14.5 km/h 18.5 km/h 56 % 0 mm
12:42 15 °C 6.3 °C 1023.9 hPa SE 11.7 km/h 22.2 km/h 56 % 0 mm
12:47 15.1 °C 6.1 °C 1023.9 hPa SE 12.4 km/h 20.4 km/h 55 % 0 mm
12:52 15.3 °C 6.3 °C 1023.9 hPa SE 14.2 km/h 19.3 km/h 55 % 0 mm
12:57 15.2 °C 5.9 °C 1023.6 hPa SE 9.2 km/h 14.8 km/h 54 % 0 mm
13:02 15.4 °C 6.4 °C 1023.6 hPa South 8.5 km/h 14.8 km/h 55 % 0 mm
13:07 15.5 °C 6.5 °C 1023.6 hPa South 17.2 km/h 25.9 km/h 55 % 0 mm
13:12 15.4 °C 6.4 °C 1023.6 hPa South 7.9 km/h 11.1 km/h 55 % 0 mm
13:17 15.6 °C 6.3 °C 1023.2 hPa SSE 15.9 km/h 16.7 km/h 54 % 0 mm
13:22 15.6 °C 6.3 °C 1023.2 hPa SSE 10.1 km/h 18.5 km/h 54 % 0 mm
13:27 15.7 °C 6.7 °C 1023.2 hPa SSW 10.6 km/h 14.8 km/h 55 % 0 mm
13:32 15.7 °C 6.4 °C 1023.2 hPa SE 10.8 km/h 16.7 km/h 54 % 0 mm
13:37 15.8 °C 6.5 °C 1023.2 hPa SSE 12.7 km/h 18.5 km/h 54 % 0 mm
13:42 15.8 °C 6.6 °C 1022.9 hPa SSE 9.8 km/h 13 km/h 54 % 0 mm
13:47 15.8 °C 6 °C 1022.9 hPa South 10.6 km/h 16.7 km/h 52 % 0 mm
13:52 15.8 °C 6.3 °C 1022.9 hPa SSE 9.3 km/h 18.5 km/h 53 % 0 mm
13:57 15.8 °C 6 °C 1022.9 hPa SE 12.6 km/h 19.3 km/h 52 % 0 mm
14:02 15.9 °C 6.4 °C 1022.9 hPa SSE 9.2 km/h 14.8 km/h 53 % 0 mm
14:07 16.1 °C 6.5 °C 1023.2 hPa South 9 km/h 18.5 km/h 53 % 0 mm
14:12 16.1 °C 6.2 °C 1022.9 hPa SSE 10.8 km/h 14.8 km/h 52 % 0 mm
14:17 15.8 °C 6.3 °C 1022.9 hPa South 12.2 km/h 18.5 km/h 53 % 0 mm
14:22 15.7 °C 6.2 °C 1022.9 hPa South 11.7 km/h 14.8 km/h 53 % 0 mm
14:27 15.7 °C 6.1 °C 1022.9 hPa South 13.7 km/h 20.4 km/h 53 % 0 mm
14:32 16 °C 6.7 °C 1022.9 hPa South 13.2 km/h 18.5 km/h 54 % 0 mm
14:37 15.9 °C 6.3 °C 1022.9 hPa South 10.9 km/h 22.5 km/h 53 % 0 mm
14:42 15.9 °C 6.3 °C 1022.9 hPa South 8.2 km/h 13 km/h 53 % 0 mm
14:47 15.9 °C 6.6 °C 1022.6 hPa SSE 8.5 km/h 14.8 km/h 54 % 0 mm
14:52 15.9 °C 6.4 °C 1022.6 hPa SSE 5.8 km/h 14.5 km/h 53 % 0 mm
14:57 16.3 °C 6.4 °C 1022.9 hPa SE 14.8 km/h 25.9 km/h 52 % 0 mm
15:02 16.2 °C 6.3 °C 1022.6 hPa SE 7.1 km/h 13 km/h 52 % 0 mm
15:07 16.2 °C 6 °C 1022.9 hPa SE 11.9 km/h 17.7 km/h 51 % 0 mm
15:12 16.2 °C 6.6 °C 1022.9 hPa SSE 13.2 km/h 18.5 km/h 53 % 0 mm
15:17 16.2 °C 6.3 °C 1022.9 hPa SE 14.3 km/h 18.5 km/h 52 % 0 mm
15:22 16.2 °C 6.3 °C 1022.9 hPa SSE 13 km/h 18.5 km/h 52 % 0 mm
15:27 16 °C 6.4 °C 1022.9 hPa SE 7.2 km/h 18.5 km/h 53 % 0 mm
15:32 16 °C 6.4 °C 1022.9 hPa SE 10.1 km/h 18.5 km/h 53 % 0 mm
15:37 15.9 °C 6.1 °C 1022.9 hPa SSE 10.9 km/h 22.2 km/h 52 % 0 mm
15:42 15.8 °C 5.7 °C 1022.9 hPa SE 13.2 km/h 22.2 km/h 51 % 0 mm
15:47 15.7 °C 5.9 °C 1022.9 hPa South 13 km/h 18.5 km/h 52 % 0 mm
15:52 15.7 °C 6.1 °C 1022.9 hPa SSE 12.9 km/h 17.7 km/h 53 % 0 mm
15:57 15.7 °C 6.4 °C 1022.9 hPa South 10.9 km/h 18.5 km/h 54 % 0 mm
16:02 15.7 °C 6.4 °C 1022.9 hPa South 13.5 km/h 18.5 km/h 54 % 0 mm
16:07 15.6 °C 6.3 °C 1022.9 hPa SSE 8.4 km/h 14.8 km/h 54 % 0 mm
16:12 15.5 °C 6.2 °C 1022.9 hPa South 8.7 km/h 18.5 km/h 54 % 0 mm
16:17 15.4 °C 6.1 °C 1022.9 hPa SSE 11.3 km/h 18.5 km/h 54 % 0 mm
16:22 15.4 °C 6.4 °C 1022.9 hPa SSE 9.5 km/h 13 km/h 55 % 0 mm
16:27 15.4 °C 6.1 °C 1022.9 hPa SSE 10.9 km/h 18.5 km/h 54 % 0 mm
16:32 15.3 °C 6.3 °C 1022.9 hPa SSE 10 km/h 16.7 km/h 55 % 0 mm
16:37 15.2 °C 6.2 °C 1022.9 hPa SE 14.5 km/h 20.4 km/h 55 % 0 mm
16:42 15.1 °C 6.4 °C 1022.9 hPa SSE 11.3 km/h 14.8 km/h 56 % 0 mm
16:47 15.1 °C 6.3 °C 1022.9 hPa SE 12.4 km/h 16.7 km/h 56 % 0 mm
16:52 14.9 °C 6.2 °C 1022.9 hPa SSE 9.2 km/h 13 km/h 56 % 0 mm
16:57 14.9 °C 6.4 °C 1022.9 hPa SSE 9.8 km/h 14.8 km/h 57 % 0 mm
17:02 14.8 °C 6.1 °C 1022.9 hPa SE 11.1 km/h 19.3 km/h 56 % 0 mm
17:07 14.6 °C 6.2 °C 1022.9 hPa SSE 11.1 km/h 18.5 km/h 57 % 0 mm
17:12 14.5 °C 6.3 °C 1022.9 hPa South 9 km/h 18.5 km/h 58 % 0 mm
17:17 14.4 °C 6.2 °C 1023.2 hPa South 6.6 km/h 9.3 km/h 58 % 0 mm
17:22 14.3 °C 6.4 °C 1023.2 hPa SSE 8.4 km/h 13 km/h 59 % 0 mm
17:27 14.1 °C 6.2 °C 1022.9 hPa SSE 9.2 km/h 16.7 km/h 59 % 0 mm
17:32 14 °C 6.1 °C 1023.2 hPa SSE 8.7 km/h 18.5 km/h 59 % 0 mm
17:37 13.8 °C 6.2 °C 1023.2 hPa SSE 7.9 km/h 13 km/h 60 % 0 mm
17:42 13.6 °C 6 °C 1023.2 hPa SSE 8.5 km/h 16.7 km/h 60 % 0 mm
17:47 13.3 °C 6.2 °C 1023.2 hPa SSE 7.2 km/h 11.1 km/h 62 % 0 mm
17:52 13.2 °C 6.1 °C 1023.2 hPa SSE 5.6 km/h 13 km/h 62 % 0 mm
17:57 12.9 °C 6.1 °C 1023.2 hPa SSE 4.2 km/h 11.1 km/h 63 % 0 mm
18:02 12.7 °C 6.1 °C 1023.2 hPa SSE 7.4 km/h 11.1 km/h 64 % 0 mm
18:07 12.6 °C 6.2 °C 1023.2 hPa SSE 7.2 km/h 14.8 km/h 65 % 0 mm
18:12 12.4 °C 6 °C 1023.2 hPa SSE 6 km/h 9.3 km/h 65 % 0 mm
18:17 12.2 °C 6.1 °C 1023.2 hPa SSE 3.7 km/h 7.4 km/h 66 % 0 mm
18:22 12.1 °C 5.9 °C 1023.2 hPa SSE 3.4 km/h 5.6 km/h 66 % 0 mm
18:27 11.8 °C 5.9 °C 1023.2 hPa SSE 3.4 km/h 11.1 km/h 67 % 0 mm
18:32 11.7 °C 5.9 °C 1023.6 hPa SSE 2.7 km/h 7.4 km/h 68 % 0 mm
18:37 11.5 °C 6 °C 1023.6 hPa SSE 6.8 km/h 13 km/h 69 % 0 mm
18:42 11.4 °C 5.9 °C 1023.6 hPa SSE 4.7 km/h 7.4 km/h 69 % 0 mm
18:47 11.3 °C 5.8 °C 1023.6 hPa SSE 3.7 km/h 9.7 km/h 69 % 0 mm
18:52 11.1 °C 5.8 °C 1023.6 hPa SSE 6.3 km/h 9.3 km/h 70 % 0 mm
18:57 11 °C 5.7 °C 1023.6 hPa SSE 3.9 km/h 8 km/h 70 % 0 mm
19:02 10.9 °C 5.9 °C 1023.6 hPa SSE 0.3 km/h 1.9 km/h 71 % 0 mm
19:07 10.8 °C 5.8 °C 1023.9 hPa SSE 1.1 km/h 5.6 km/h 71 % 0 mm
19:12 10.7 °C 5.7 °C 1023.9 hPa SSE 7.2 km/h 9.3 km/h 71 % 0 mm
19:17 10.6 °C 5.8 °C 1023.9 hPa SSE 7.2 km/h 14.8 km/h 72 % 0 mm
19:22 10.5 °C 5.7 °C 1023.9 hPa SSE 4.7 km/h 11.1 km/h 72 % 0 mm
19:27 10.4 °C 5.6 °C 1023.9 hPa SSE 4.8 km/h 11.3 km/h 72 % 0 mm
19:32 10.3 °C 5.7 °C 1023.9 hPa SSE 3.5 km/h 7.4 km/h 73 % 0 mm
19:37 10.2 °C 5.6 °C 1024.3 hPa SSE 7.6 km/h 13 km/h 73 % 0 mm
19:42 10.2 °C 5.6 °C 1024.3 hPa SSE 7.9 km/h 11.1 km/h 73 % 0 mm
19:47 10.1 °C 5.7 °C 1024.3 hPa SSE 4.2 km/h 9.3 km/h 74 % 0 mm
19:52 10 °C 5.6 °C 1024.3 hPa SSE 7.2 km/h 11.1 km/h 74 % 0 mm
19:57 9.8 °C 5.6 °C 1024.3 hPa South 5.3 km/h 12.9 km/h 75 % 0 mm
20:02 9.8 °C 5.6 °C 1024.3 hPa South 8.4 km/h 9.3 km/h 75 % 0 mm
20:07 9.7 °C 5.6 °C 1024.3 hPa South 8.9 km/h 11.1 km/h 76 % 0 mm
20:12 9.6 °C 5.6 °C 1024.3 hPa South 8.2 km/h 14.8 km/h 76 % 0 mm
20:17 9.4 °C 5.6 °C 1024.3 hPa South 7.9 km/h 13 km/h 77 % 0 mm
20:22 9.3 °C 5.5 °C 1024.3 hPa South 8.5 km/h 11.1 km/h 77 % 0 mm
20:27 9.2 °C 5.6 °C 1024.3 hPa South 6.6 km/h 11.3 km/h 78 % 0 mm
20:32 9.2 °C 5.6 °C 1024.3 hPa South 5.5 km/h 13 km/h 78 % 0 mm
20:37 9.1 °C 5.7 °C 1024.3 hPa South 4.2 km/h 8 km/h 79 % 0 mm
20:42 9 °C 5.6 °C 1024.3 hPa South 8.7 km/h 14.8 km/h 79 % 0 mm
20:47 8.9 °C 5.5 °C 1024.3 hPa South 7.4 km/h 9.3 km/h 79 % 0 mm
20:52 8.9 °C 5.5 °C 1024.3 hPa South 3.7 km/h 11.1 km/h 79 % 0 mm
20:57 8.9 °C 5.6 °C 1024.3 hPa South 6.6 km/h 11.1 km/h 80 % 0 mm
21:02 8.8 °C 5.6 °C 1024.3 hPa South 10.1 km/h 16.7 km/h 80 % 0 mm
21:07 8.8 °C 5.5 °C 1024.3 hPa South 5.8 km/h 9.3 km/h 80 % 0 mm
21:12 8.7 °C 5.4 °C 1024.3 hPa South 8.4 km/h 11.3 km/h 80 % 0 mm
21:17 8.7 °C 5.6 °C 1024.3 hPa South 7.2 km/h 14.8 km/h 81 % 0 mm
21:22 8.6 °C 5.6 °C 1024.3 hPa South 7.4 km/h 11.1 km/h 81 % 0 mm
21:27 8.6 °C 5.5 °C 1024.3 hPa South 5.3 km/h 11.1 km/h 81 % 0 mm
21:32 8.5 °C 5.4 °C 1024.3 hPa South 5.5 km/h 9.3 km/h 81 % 0 mm
21:37 8.4 °C 5.5 °C 1024.3 hPa South 6.1 km/h 6.4 km/h 82 % 0 mm
21:42 8.4 °C 5.5 °C 1024.6 hPa South 5 km/h 9.7 km/h 82 % 0 mm
21:47 8.3 °C 5.4 °C 1024.6 hPa South 4.7 km/h 9.3 km/h 82 % 0 mm
21:52 8.3 °C 5.6 °C 1024.6 hPa South 5.3 km/h 8 km/h 83 % 0 mm
21:57 8.2 °C 5.5 °C 1024.3 hPa South 4 km/h 11.1 km/h 83 % 0 mm
22:02 8.2 °C 5.4 °C 1024.3 hPa South 4.7 km/h 9.3 km/h 83 % 0 mm
22:07 8.1 °C 5.5 °C 1024.3 hPa South 7.1 km/h 13 km/h 84 % 0 mm
22:12 8.1 °C 5.5 °C 1024.3 hPa South 3.9 km/h 7.4 km/h 84 % 0 mm
22:17 7.9 °C 5.4 °C 1024.3 hPa South 2.1 km/h 6.4 km/h 84 % 0 mm
22:22 7.9 °C 5.3 °C 1024.3 hPa South 5.1 km/h 8 km/h 84 % 0 mm
22:27 7.8 °C 5.4 °C 1024.3 hPa South 5 km/h 9.3 km/h 85 % 0 mm
22:32 7.8 °C 5.4 °C 1024.3 hPa South 1.3 km/h 9.3 km/h 85 % 0 mm
22:37 7.7 °C 5.5 °C 1024.3 hPa South 7.1 km/h 11.3 km/h 86 % 0 mm
22:42 7.7 °C 5.5 °C 1024.3 hPa South 3.5 km/h 9.3 km/h 86 % 0 mm
22:47 7.7 °C 5.5 °C 1024.3 hPa South 6.4 km/h 16.7 km/h 86 % 0 mm
22:52 7.7 °C 5.5 °C 1024.3 hPa South 4.8 km/h 9.3 km/h 86 % 0 mm
22:57 7.8 °C 5.6 °C 1024.3 hPa South 4.3 km/h 9.3 km/h 86 % 0 mm
23:02 7.8 °C 5.6 °C 1024.3 hPa North 2.9 km/h 9.3 km/h 86 % 0 mm
23:07 7.8 °C 5.6 °C 1023.9 hPa South 5.5 km/h 8 km/h 86 % 0 mm
23:12 7.8 °C 5.6 °C 1023.9 hPa South 4.8 km/h 16.7 km/h 86 % 0 mm
23:17 7.8 °C 5.6 °C 1023.9 hPa South 11.4 km/h 18.5 km/h 86 % 0 mm
23:22 7.8 °C 5.6 °C 1023.9 hPa South 5.3 km/h 9.7 km/h 86 % 0 mm
23:27 7.7 °C 5.5 °C 1023.9 hPa South 6.6 km/h 11.1 km/h 86 % 0 mm
23:32 7.6 °C 5.4 °C 1023.9 hPa South 6.3 km/h 9.3 km/h 86 % 0 mm
23:37 7.6 °C 5.4 °C 1023.9 hPa South 6.9 km/h 9.3 km/h 86 % 0 mm
23:42 7.6 °C 5.4 °C 1023.9 hPa South 6.8 km/h 13 km/h 86 % 0 mm
23:47 7.5 °C 5.5 °C 1023.9 hPa South 9.5 km/h 13 km/h 87 % 0 mm
23:52 7.6 °C 5.6 °C 1023.6 hPa South 9.5 km/h 14.8 km/h 87 % 0 mm
23:57 7.7 °C 5.5 °C 1023.9 hPa South 9.7 km/h 14.8 km/h 86 % 0 mm
Ararat Weather
Compliments of Weather Underground - 2.5 mb
Click here to send mail.


ABOUT

Live weather data from Ararat, Victoria, Australia, 3377
Data uploaded from Cumulus every 5 minutes to Weather Underground.
This site then downloads the raw data for formatting and display.
Metric and imperial data can be displayed. Graphs and historical data available.
Includes Sun and Moon times and rain image live from BOM.

Check out Ararat Weather on Facebook, Twitter and Google +

Help support ongoing costs by checking out the ads





Follow @AraratWeather